Probability
0 0 0 0 0 0 0 0 0 0 0 0 0 0 0 0 0 0 0 0 0 0 0 0 0 0 0 0 0 0 0 0 0 0 0 0 0 0 0 0 0 0 0
0 0 0 0 0 0 0 0 0 0 0 0 0 0 0 0 0 0 0 0 0 0 0 0 0 0 0 0 0 0 0 0 0 0 0 0 0 0 0 0 0 0 0
0 0 0 0 0 0 0 0 0 0 0 0 0 0 0 0 0 0 0 0 0 0 0 0 0 0 0 0 0 0 0 0 0 0 0 0 0 0 0 0 0 0 0
0 0 0 0 0 0 0 0 0 0 0 0 0 0 0 0 0 0 0 0 0 0 0 0 0 0 0 0 0 0 0 0 0 0 0 0 0 0 0 0 0 0 0
0 0 0 0 0 0 0 0 0 0 0 0 0 0 0 0 0 0 0 0 0 0 0 0 0 0 0 0 0 0 0 0 0 0 0 0 0 0 0 0 0 0 0
0 0 0 0 0 0 0 0 0 0 0 0 0 0 0 0 0 0 0 0 0 0 0 0 0 0 0 0 0 0 0 0 0 0 0 0 0 0 0 0 0 0 0
0 0 0 0 0 0 0 0 0 0 0 0 0 0 0 0 0 0 0 0 0 0 0 0 0 0 0 0 0 0 0 0 0 0 0 0 0 0 0 0 0 0 0
0 0 0 0 0 0 0 0 0 0 0 0 0 0 0 0 0 0 0 0 0 0 0 0 0 0 0 0 0 0 0 0 0 0 0 0 0 0 0 0 0 0 0
0 0 0 0 0 0 0 0 0 0 0 0 0 0 0 0 0 0 0 0 0 0 0 0 0 0 0 0 0 0 0 0 0 0 0 0 0 0 0 0 0 0 0
0 0 0 0 0 0 0 0 0 0 0 0 0 0 0 0 0 0 0 0 0 0 0 0 0 0 0 0 0 0 0 0 0 0 0 0 0 0 0 0 0 0 0
0 0 0 0 0 0 0 0 0 0 0 0 0 0 0 0 0 0 0 0 0 0 0 0 0 0 0 0 0 0 0 0 0 0 0 0 0 0 0 0 0 0 0
0 0 0 0 0 0 0 0 0 0 0 0 0 0 0 0 0 0 0 0 0 0 0 0 0 0 0 0 0 0 0 0 0 0 0 0 0 0 0 0 0 0 0
0 0 0 0 0 0 0 0 0 0 0 0 0 0 0 0 0 0 0 0 0 0 0 0 0 0 0 0 0 0 0 0 0 0 0 0 0 0 0 0 0 0 0
0 0 0 0 0 0 0 0 0 0 0 0 0 0 0 0 0 0 0 0 0 0 0 0 0 0 0 0 0 0 0 0 0 0 0 0 0 0 0 0 0 0 0
0 0 0 0 0 0 0 0 0 0 0 0 0 0 0 0 0 0 0 0 0 0 0 0 0 0 0 0 0 0 0 0 0 0 0 0 0 0 0 0 0 0 0
0 0 0 0 0 0 0 0 0 0 0 0 0 0 0 0 0 0 0 0 0 0 0 0 0 0 0 0 0 0 0 0 0 0 0 0 0 0 0 0 0 0 0
0 0 0 0 0 0 0 0 0 0 0 0 0 0 0 0 0 0 0 0 0 0 0 0 0 0 0 0 0 0 0 0 0 0 0 0 0 0 0 0 0 0 0
0 0 0 0 0 0 0 0 0 0 0 0 0 0 0 0 0 0 0 0 0 0 0 0 0 0 0 0 0 0 0 0 0 0 0 0 0 0 0 0 0 0 0
0 0 0 0 0 0 0 0 0 0 0 0 0 0 0 0 0 0 0 0 0 0 0 0 0 0 0 0 0 0 0 0 0 0 0 0 0 0 0 0 0 0 0
0 0 0 0 0 0 0 0 0 0 0 0 0 0 0 0 0 0 0 0 0 0 0 0 0 0 0 0 0 0 0 0 0 0 0 0 0 0 0 0 0 0 0
0 0 0 0 0 0 0 0 0 0 0 0 0 0 0 0 0 0 0 0 0 0 0 0 0 0 0 0 0 0 0 0 0 0 0 0 0 0 0 0 0 0 0
0 0 0 0 0 0 0 0 0 0 0 0 0 0 0 0 0 0 0 0 0 0 0 0 0 0 0 0 0 0 0 0 0 0 0 0 0 0 0 0 0 0 0
0 0 0 0 0 0 0 0 0 0 0 0 0 0 0 0 0 0 0 0 0 0 0 0 0 0 0 0 0 0 0 0 0 0 0 0 0 0 0 0 0 0 0
0 0 0 0 0 0 0 0 0 0 0 0 0 0 0 0 0 0 0 0 0 0 0 0 0 0 0 0 0 0 0 0 0 0 0 0 0 0 0 0 0 0 0
0 0 0 0 0 0 0 0 0 0 0 0 0 0 0 0 0 0 0 0 0 0 0 0 0 0 0 0 0 0 0 0 0 0 0 0 0 0 0 0 0 0 0
0 0 0 0 0 0 0 0 0 0 0 0 0 0 0 0 0 0 0 0 0 0 0 0 0 0 0 0 0 0 0 0 0 0 0 0 0 0 0 0 0 0 0
Wind_Speed
7 7 7 8 8 9 11 12 12 12 10 9 10 10 10 9 8 7 11 11 11 12 10 9 10 11 10 12 13 12 13 11 10 10 11 10 12 12 10 9 8 7 6
7 7 7 8 8 9 10 10 11 11 10 9 8 8 9 8 8 8 9 10 11 12 11 11 10 10 10 11 12 12 10 10 10 10 10 7 7 5 7 6 7 8 6
7 7 7 8 8 8 9 10 10 11 10 10 7 9 7 7 7 8 7 9 11 11 10 10 10 10 9 9 11 11 12 11 11 9 7 6 6 11 9 8 6 5 5
6 6 7 8 8 8 7 8 9 10 9 9 9 11 10 9 10 8 8 10 11 11 10 10 10 10 9 10 10 11 10 11 10 9 7 8 9 7 8 10 8 8 7
6 7 8 8 7 7 7 7 8 8 9 9 9 9 9 8 8 9 10 9 9 9 10 10 9 10 9 10 10 10 10 9 10 9 9 10 9 9 7 11 12 10 8
7 7 8 7 7 7 6 7 8 8 8 9 9 10 11 11 12 11 10 9 7 7 9 12 9 10 9 10 10 9 11 10 11 9 9 9 8 8 7 8 11 11 10
7 7 8 7 7 7 7 7 8 9 9 9 9 9 10 10 10 10 10 11 9 8 9 11 10 10 10 11 10 10 10 10 11 10 9 8 9 9 9 9 9 11 10
7 7 7 7 7 7 7 8 8 9 9 9 9 9 9 7 7 9 10 9 8 8 10 11 11 12 12 13 11 9 9 9 10 12 11 8 8 8 8 8 8 9 8
7 7 7 7 7 7 7 8 9 9 9 9 9 9 9 9 9 9 9 7 8 10 12 12 12 12 12 12 12 8 10 10 10 10 10 8 7 8 8 8 8 8 8
7 7 7 7 6 6 6 7 8 8 8 9 9 12 10 9 9 9 9 9 10 10 12 12 12 12 12 12 11 10 10 11 11 10 10 8 7 7 7 7 8 8 8
7 7 7 7 6 7 7 7 7 8 9 9 9 10 9 9 9 9 9 9 9 10 11 12 12 13 12 12 11 11 12 13 14 12 10 9 9 8 7 7 8 8 7
7 7 7 7 7 7 7 8 8 8 9 9 10 10 10 10 10 10 10 10 11 10 11 11 12 13 13 12 13 13 13 15 15 12 9 8 7 9 8 7 8 8 7
8 7 7 7 7 8 8 8 8 9 9 10 11 11 11 11 11 11 11 11 11 11 11 10 11 12 12 13 12 11 14 15 14 11 8 8 8 8 8 9 8 7 8
7 7 7 7 7 8 8 9 9 9 11 11 11 12 12 12 12 11 12 12 11 11 11 10 11 12 13 14 12 12 13 13 12 9 8 7 8 8 9 8 8 8 8
8 8 7 7 8 8 8 9 9 10 11 11 12 12 11 11 11 11 11 11 11 13 11 11 11 11 12 12 14 12 12 13 12 9 8 8 10 13 10 8 7 7 6
7 8 8 8 8 8 9 9 10 10 10 11 12 12 11 10 10 11 10 10 10 11 10 11 12 12 13 22 25 19 10 11 10 8 7 8 9 12 14 15 14 14 9
6 7 7 7 8 8 8 9 10 11 11 11 11 10 10 11 10 12 11 10 10 10 10 10 11 11 14 25 25 24 14 10 8 7 6 7 9 10 6 9 13 13 17
5 6 6 7 7 7 7 8 9 11 11 10 10 10 11 11 10 10 10 10 9 9 9 10 10 10 15 25 25 23 13 9 8 7 5 6 7 7 7 7 7 8 10
4 5 5 6 7 7 8 9 11 11 10 10 11 12 11 11 11 10 10 9 8 8 8 9 10 10 13 23 24 20 8 8 9 8 8 8 5 10 14 9 8 8 9
4 5 6 6 7 8 8 10 11 11 11 11 12 12 11 11 11 10 9 8 8 9 10 10 10 10 10 21 23 19 6 7 8 8 9 13 11 15 17 9 8 9 8
5 5 6 6 7 8 9 9 10 10 11 12 12 11 10 10 10 8 8 8 9 10 10 10 10 10 13 19 24 22 7 7 8 7 7 9 18 19 20 15 10 14 11
5 6 6 7 7 8 8 9 9 10 11 12 12 11 10 10 10 8 8 8 8 9 9 9 9 8 10 17 20 24 20 15 8 7 6 10 21 21 21 16 19 21 15
5 5 6 8 8 8 8 8 9 10 11 12 12 10 10 8 8 8 7 7 7 7 8 8 8 8 8 11 22 23 23 21 10 8 16 18 21 18 14 21 22 16 10
4 5 6 8 9 8 8 7 8 9 11 12 11 9 9 9 8 7 7 6 7 7 7 8 8 8 7 7 6 7 9 14 10 8 13 18 19 15 16 16 13 10 10
4 5 6 7 8 8 8 8 8 9 10 10 10 9 9 8 7 8 8 9 6 11 8 5 5 7 6 11 18 11 8 6 8 8 6 7 7 8 8 8 8 8 9
4 5 6 7 8 8 8 8 8 9 10 10 9 7 7 7 7 6 7 14 16 19 19 17 14 9 14 17 18 17 17 18 17 10 6 7 7 8 8 8 7 7 8
Wind_Direction
25 40 36 33 23 18 14 2 357 355 354 353 344 342 339 336 334 343 345 341 339 337 336 341 338 336 332 331 331 333 327 326 322 318 315 297 278 264 263 261 261 254 242
16 22 26 31 22 18 13 0 356 351 353 350 338 336 330 328 333 340 334 335 337 337 340 343 340 335 330 328 331 330 326 324 329 321 316 309 302 331 296 278 260 250 241
14 10 20 28 22 19 12 359 352 348 349 346 339 337 326 329 337 334 331 336 338 335 336 341 340 331 328 324 327 327 331 324 319 317 312 315 327 331 306 315 309 308 273
15 13 25 27 22 18 11 359 348 346 347 346 341 339 339 337 334 331 328 334 333 332 335 341 338 330 325 323 325 332 323 319 318 316 307 307 306 300 311 313 321 318 308
20 22 31 28 20 15 8 355 344 344 345 345 341 338 333 330 327 327 330 332 327 329 337 340 335 329 323 322 322 321 319 315 310 310 311 309 303 286 288 298 311 319 318
24 26 28 23 14 12 5 351 344 342 343 343 340 337 333 333 330 332 333 330 326 329 335 335 332 325 321 320 317 316 315 312 310 310 308 307 303 306 301 295 303 307 310
26 22 19 12 9 5 359 350 345 340 342 341 339 335 333 331 329 332 330 328 329 332 329 333 327 323 320 318 316 315 313 310 310 308 305 304 301 301 300 296 294 296 301
29 24 17 12 7 1 357 350 344 340 340 340 337 331 331 328 325 327 324 324 327 325 326 330 324 322 321 320 317 313 313 314 311 307 306 304 304 304 301 298 298 294 292
30 22 12 11 7 2 357 349 343 339 338 338 335 328 331 327 324 322 320 322 324 325 328 325 323 322 320 318 318 315 316 315 311 306 303 304 305 305 303 300 297 289 286
30 18 11 8 6 1 352 346 341 336 335 338 335 334 327 324 323 321 322 323 323 323 323 324 323 322 320 320 320 318 315 319 315 307 304 307 308 307 307 305 302 292 282
31 16 11 6 1 357 349 343 340 338 338 336 330 327 323 323 323 321 321 322 320 322 323 323 324 323 322 323 319 316 319 321 315 310 308 310 314 314 312 310 308 304 294
32 19 10 359 356 351 345 342 341 340 337 333 329 326 325 325 324 322 322 321 319 319 319 321 323 322 323 321 317 318 326 319 315 312 311 314 317 317 316 312 307 305 304
24 14 4 355 351 346 343 342 341 338 335 333 330 327 326 325 323 321 321 319 317 316 318 321 320 320 320 318 314 321 320 317 315 313 317 317 316 317 315 312 310 310 309
18 7 359 350 346 344 342 341 338 338 336 334 329 325 322 319 317 318 319 318 318 319 319 318 318 318 317 313 311 318 316 317 316 315 314 313 313 311 313 314 318 316 313
8 3 354 344 342 341 339 337 334 336 332 326 321 315 312 313 315 318 319 321 323 323 319 319 317 316 315 313 316 315 318 318 314 313 314 315 327 332 336 335 338 337 332
2 356 348 343 340 337 335 333 331 328 323 316 310 310 313 318 320 320 322 323 321 319 320 319 317 317 322 319 322 325 320 318 313 313 318 325 337 341 351 354 8 10 7
358 349 342 338 332 331 331 330 326 321 315 309 310 316 321 322 322 325 327 323 321 321 319 316 315 314 314 322 327 331 336 322 314 318 329 341 345 352 351 6 19 15 16
355 343 336 329 324 326 330 326 321 315 311 314 322 327 325 323 324 326 326 324 321 320 316 316 317 317 320 328 331 339 344 331 331 336 343 344 336 353 27 30 27 21 16
360 342 333 326 328 334 336 328 319 314 319 330 332 330 328 329 330 331 329 326 324 322 320 321 322 322 323 330 336 351 342 344 347 351 0 351 346 27 49 42 29 24 17
0 347 337 334 336 335 330 322 317 324 334 335 332 328 329 330 329 332 331 332 332 332 330 329 329 327 324 334 346 360 353 356 357 359 358 6 32 53 58 45 32 32 19
357 355 344 337 334 327 321 318 321 332 333 331 326 327 330 329 332 334 334 336 337 335 334 332 333 334 343 347 351 6 16 15 8 7 5 16 42 51 52 49 41 41 35
1 357 343 332 327 321 320 322 328 329 331 329 327 329 331 336 343 338 337 337 337 336 336 337 341 343 345 354 359 12 20 30 21 17 17 30 43 44 45 45 42 41 35
359 347 337 327 324 319 323 327 327 332 333 331 330 331 334 336 339 340 339 340 339 339 346 346 346 346 351 353 9 12 14 19 26 22 37 44 45 40 36 38 40 37 32
349 342 335 326 318 318 327 326 328 335 333 331 331 335 338 338 340 342 342 343 340 343 352 348 346 345 348 346 358 1 6 11 20 22 32 38 40 40 38 36 32 27 31
338 332 320 312 313 322 327 329 336 336 332 329 331 336 339 335 339 344 346 348 342 354 358 343 340 349 350 7 17 19 11 13 35 35 26 26 26 29 27 29 29 27 25
318 317 317 319 318 323 327 331 338 337 333 334 335 336 337 338 339 336 341 352 357 358 1 0 5 359 7 14 17 19 23 31 39 39 26 27 26 26 25 25 25 25 25